Regional Weather Roundup
Issued by NWS

Home | Current Version | Previous Version | Text Only | Print | Product List | Glossary Off
Versions: 1 2 3 4 5 6 7 8 9 10 11 12 13 14 15 16 17 18 19 20 21 22 23 24 25 26 27 28 29 30 31 32 33 34 35 36 37 38 39 40 41 42 43 44 45 46 47 48 49 50

458
ASUS43 KLOT 162309
RWRIL

ILLINOIS REGIONAL WEATHER ROUNDUP
NATIONAL WEATHER SERVICE CHICAGO/ROMEOVILLE IL
600 PM CDT MON OCT 16 2017

NOTE: "FAIR" INDICATES FEW OR NO CLOUDS BELOW 12,000 FEET WITH NO
SIGNIFICANT WEATHER AND/OR OBSTRUCTIONS TO VISIBILITY.

* THESE STATIONS ARE NOT UNDER NWS QUALITY CONTROL. THEY ALSO MAY NOT
  REPORT WEATHER SUCH AS PRECIPITATION OR FOG.

ILZ001-002-007-009-015-016-024-170000-
NORTHWEST ILLINOIS

CITY           SKY/WX    TMP DP  RH WIND       PRES   REMARKS
MOLINE         CLEAR     62  36  37 SW3       30.21S
STERLING*      CLEAR     59  40  49 SW6         N/A
SAVANNA*       CLEAR     61  37  40 SW3       30.21R
$$

ILZ003-004-008-010-011-017-018-170000-
NORTH CENTRAL ILLINOIS

CITY           SKY/WX    TMP DP  RH WIND       PRES   REMARKS
ROCKFORD       CLEAR     59  34  39 SW5       30.22S
FREEPORT*      CLEAR     59  36  42 W6        30.22S
ROCHELLE*      CLEAR     58  36  44 SW6       30.22S
DE KALB*       CLEAR     57  35  43 SW6       30.22F
PERU*          CLEAR     59  34  39 W3        30.24S
$$

ILZ005-006-012>014-019>023-170000-
NORTHEAST ILLINOIS

CITY           SKY/WX    TMP DP  RH WIND       PRES   REMARKS
CHICAGO-OHARE  CLEAR     59  36  42 W7        30.21S
CHICAGO-MIDWAY PTCLDY    60  35  39 W7        30.22S
AURORA         CLEAR     58  38  47 SW6       30.22F
LANSING*       CLEAR     58  40  51 SW6       30.23F
JOLIET*        CLEAR     61  37  39 SW3       30.23S
WAUKEGAN       CLEAR     57  35  43 W3        30.20S
DUPAGE AIRPORT CLEAR     57  38  48 SW6       30.21S
KANKAKEE*      CLEAR     58  37  44 W6        30.25S
WHEELING       CLEAR     61  36  39 SW7       30.23R
MORRIS*        CLEAR     59  36  41 SW5       30.22F
ROMEOVILLE*    CLEAR     58  38  48 W5        30.23S
NORTHERLY ISL    N/A     61  31  32 SW8         N/A
$$

LMZ740>746-170000-
SOUTHERN LAKE MICHIGAN

STATION/POSITION SKY/WX   TEMP    WIND        PRES    VSBY  WAVE
                          AIR SEA DIR/SP/G                  HT/PER
                          (F)     (DEG/KT/KT) (MB)    (MI)  (FT/S)
SOUTHERN BUOY              58 62  220/ 10/ 12 1023.2F         1/ 3
WILMETTE HARBOR            60 58  260/  4/  6   N/A           1/ 5
HARRISON CRIB              62     250/  9/ 11   N/A
BURNHAM HARBOR             61     210/  6/ 12   N/A
CALUMET HARBOR             61     230/  6/  8 1022.7F
BURNS HARBOR               62     240/  8/ 10 1024.0S
MICHIGAN CITY              59     190/  3/  3   N/A
MICHIGAN CITY 6N           59 58  160/  2/  4   N/A           1/ 6
ST. JOSEPH                 57 57  200/  6/  8 1024.1F         2/ 5
$$

ILZ025>027-034>036-040-047-049-050-058-095>099-170000-
WEST-CENTRAL ILLINOIS

CITY           SKY/WX    TMP DP  RH WIND       PRES   REMARKS
QUINCY         CLEAR     62  36  37 SW5       30.25F
GALESBURG*     CLEAR     61  37  40 SW3       30.24F
MACOMB*          N/A     62  37  39 SW6       30.26F HAZE
JACKSONVILLE*  CLEAR     63  35  36 W3        30.26S
PITTSFIELD*    CLEAR     64  36  36 SW6       30.27F
$$

ILZ028>032-037-038-041>044-048-051>054-059>061-170000-
CENTRAL ILLINOIS

CITY           SKY/WX    TMP DP  RH WIND       PRES   REMARKS
PONTIAC        CLEAR     60  38  43 SW7       30.25S
BLOOMINGTON    CLEAR     59  36  42 W7        30.27R
DECATUR        CLEAR     61  36  39 W5        30.27S
PEORIA         CLEAR     62  35  36 SW6       30.24F
LACON*         CLEAR     62  35  36 W3        30.23F
LINCOLN*       CLEAR     62  37  39 CALM      30.26S
SPRINGFIELD    CLEAR     64  36  35 W5        30.26F
TAYLORVILLE    CLEAR     60  36  40 SW5       30.27F
$$

ILZ033-039-045-046-055>057-062-063-170000-
EAST-CENTRAL ILLINOIS

CITY           SKY/WX    TMP DP  RH WIND       PRES   REMARKS
CHAMPAIGN      CLEAR     60  36  40 SW7       30.27S
DANVILLE*      CLEAR     58  37  45 SW5       30.24F
RANTOUL*       CLEAR     60  42  51 W5        30.26S
MATTOON        CLEAR     59  44  57 SW3       30.28S
PARIS*         CLEAR     59  38  46 W5        30.29S
$$

ILZ079-100>102-170000-
SOUTHWEST ILLINOIS

CITY           SKY/WX    TMP DP  RH WIND       PRES   REMARKS
BELLEVILLE     CLEAR     62  37  38 CALM      30.28F
CAHOKIA*       CLEAR     65  34  31 SW3       30.29S
SPARTA*        CLEAR     62  36  37 CALM      30.31S
$$

ILZ064>066-069>071-074>076-080>082-084>086-088>090-092>094-170000-
SOUTH-CENTRAL ILLINOIS

CITY           SKY/WX    TMP DP  RH WIND       PRES   REMARKS
CARBONDALE     CLEAR     62  36  37 CALM      30.30F
CAIRO*         CLEAR     61  38  43 N5        30.30F
EFFINGHAM*     CLEAR     62  38  41 CALM      30.31S
MARION         CLEAR     59  39  47 N6        30.31F
MT. VERNON     CLEAR     61  36  39 CALM      30.30S
CENTRALIA*     CLEAR     63  37  37 CALM      30.29F
METROPOLIS*    CLEAR     61  35  36 CALM      30.31S
$$

ILZ067-068-072-073-078-083-087-091-170000-
SOUTHEAST ILLINOIS

CITY           SKY/WX    TMP DP  RH WIND       PRES   REMARKS
LAWRENCEVILLE  CLEAR    N/A N/A N/A CALM      30.30F
FLORA*         CLEAR     62  40  44 CALM      30.30S
FAIRFIELD*     CLEAR     60  38  43 CALM      30.29S
HARRISBURG*    CLEAR     61  37  41 CALM      30.31S
ROBINSON*      CLEAR     60  34  37 CALM      30.30F
CARMI*         CLEAR     60  37  43 CALM      30.30S
$$

ABBREVIATIONS USED IN REMARKS
   TC - TEMPERATURE IN CELSIUS
  WCI - WIND CHILL INDEX
   HX - HEAT INDEX
  VSB - VISIBILITY
$$





USA.gov is the U.S. government's official web portal to all federal, state and local government web resources and services.